Tracadie, Nova Scotia

8:16 PM ADT on June 24, 2017 (GMT -0300)
Tracadie

Weather History for CXTD - January, 2014

Change the Weather History Date:

Tuesday, January 7, 2014

  Actual Average Record
Temperature  
Mean Temperature 32 °F -  
Max Temperature 53 °F - - ()
Min Temperature 9 °F - - ()
Degree Days  
Heating Degree Days 34    
Moisture  
Dew Point 27 °F    
Average Humidity 78    
Maximum Humidity 97    
Minimum Humidity 40    
Precipitation  
Precipitation 0.04 in - - ()
Sea Level Pressure  
Sea Level Pressure 29.39 in    
Wind  
Wind Speed 15 mph ()    
Max Wind Speed 25 mph    
Max Gust Speed 41 mph    
T = Trace of Precipitation, MM = Missing Value Source: Averaged Metar Reports

Daily Weather History Graph

Daily Weather History Graph

Search for Another Location

Airport or City:

Trip Planner

Search our weather history database for the weather conditions in past years. The results will help you decide how hot, cold, wet, or windy it might be!

Date:

Astronomy

Jan. 07, 2014 Rise Set
Actual Time 7:46 AM AST 4:39 PM AST
Civil Twilight 7:12 AM AST 5:13 PM AST
Nautical Twilight 6:35 AM AST 5:50 PM AST
Astronomical Twilight 5:59 AM AST 6:26 PM AST
Moon 11:10 AM AST (1/7) No Moon Set
Length of Visible Light 10h 00m
Length of Day
8h 53m
Waxing Crescent, 45% of the Moon is Illuminated
Jan 7
Waxing Crescent
Jan 7
First Quarter
Jan 16
Full
Jan 24
Last Quarter
Jan 30
New

Hourly Weather History & Observations

Time (AST) Temp. Windchill Dew Point Humidity Pressure Visibility Wind Dir Wind Speed Gust Speed Precip Events Conditions
12:00 AM 53.1 °F - 52.3 °F 97% 29.33 in - South 20.7 mph 28.8 mph 0.03 in   Unknown
1:00 AM 53.2 °F - 52.2 °F 96% 29.26 in - South 17.3 mph 27.6 mph 0.02 in   Unknown
2:00 AM 53 °F - 52 °F 93% 29.21 in - South 18.4 mph - -  
2:00 AM 52.7 °F - 51.6 °F 96% 29.21 in - South 18.4 mph 26.5 mph 0.08 in   Unknown
3:00 AM 52.0 °F - 51.3 °F 97% 29.18 in - South 16.1 mph 24.2 mph N/A   Unknown
4:00 AM 51.4 °F - 50.5 °F 97% 29.17 in - South 18.4 mph 27.6 mph 0.01 in   Unknown
5:00 AM 48.9 °F - 45.5 °F 88% 29.15 in - South 16.1 mph 24.2 mph 0.01 in   Unknown
6:00 AM 43.7 °F 36.0 °F 42.6 °F 96% 29.18 in - SSW 17.3 mph 25.3 mph 0.02 in   Unknown
7:00 AM 42.6 °F 34.0 °F 37.8 °F 83% 29.21 in - SW 19.6 mph 28.8 mph N/A   Unknown
8:00 AM 40 °F - 35 °F 77% 29.26 in - SW 13.8 mph - -  
8:00 AM 38.3 °F 30.1 °F 35.2 °F 89% 29.26 in - SW 13.8 mph 20.7 mph N/A   Unknown
9:00 AM 34.7 °F 25.1 °F 30.7 °F 85% 29.34 in - West 15.0 mph 25.3 mph N/A   Unknown
10:00 AM 34.0 °F 23.4 °F 25.2 °F 70% 29.39 in - WSW 17.3 mph 26.5 mph N/A   Unknown
11:00 AM 33.4 °F 23.5 °F 22.6 °F 65% 29.41 in - West 15.0 mph 21.9 mph N/A   Unknown
12:00 PM 33.8 °F 24.8 °F 20.8 °F 59% 29.39 in - WSW 12.7 mph 24.2 mph N/A   Unknown
1:00 PM 32.0 °F 22.5 °F 16.0 °F 52% 29.38 in - WSW 12.7 mph 19.6 mph N/A   Unknown
2:00 PM 32 °F - 17 °F 40% 29.35 in - SW 11.5 mph - -  
2:00 PM 32.0 °F 23.0 °F 18.5 °F 58% 29.35 in - SW 11.5 mph 17.3 mph N/A   Unknown
3:00 PM 29.3 °F 20.8 °F 23.4 °F 78% 29.36 in - WSW 9.2 mph - N/A   Unknown
4:00 PM 27.7 °F 22.4 °F 25.9 °F 93% 29.36 in - NW 4.6 mph - N/A   Unknown
5:00 PM 23.4 °F 10.6 °F 21.0 °F 91% 29.43 in - West 15.0 mph 21.9 mph 0.02 in   Unknown
6:00 PM 20.8 °F 9.7 °F 18.7 °F 91% 29.51 in - WSW 10.4 mph 23.0 mph 0.01 in   Unknown
7:00 PM 17.1 °F -1.4 °F 12.4 °F 82% 29.58 in - WSW 25.3 mph 41.4 mph N/A   Unknown
8:00 PM 14 °F - 9 °F 70% 29.66 in - WSW 20.7 mph - -  
8:00 PM 14.4 °F -3.4 °F 8.6 °F 78% 29.66 in - WSW 20.7 mph 31.1 mph N/A   Unknown
9:00 PM 12.2 °F -5.8 °F -1.8 °F 53% 29.73 in - West 19.6 mph 28.8 mph N/A   Unknown
10:00 PM 10.8 °F -6.7 °F -3.3 °F 53% 29.78 in - West 17.3 mph 29.9 mph N/A   Unknown
11:00 PM 9.3 °F -6.8 °F -6.5 °F 49% 29.83 in - West 13.8 mph 27.6 mph N/A   Unknown